Wind_Speed
12 13 14 14 14 13 13 14 14 14 14 14 15 16 16 17 17 18 19 20 21 21 21 22 22 22 22 22 21 21 21 20 18 18 17 15 13 12 11 9 7 6 5 6
11 12 13 13 13 14 14 14 13 14 14 14 15 16 16 17 17 18 19 20 21 21 21 22 22 22 22 22 22 22 21 20 20 19 18 17 16 14 12 10 9 8 7 6
11 11 12 12 13 13 13 13 13 13 14 14 15 15 16 16 16 17 17 19 20 21 21 22 22 22 22 22 22 22 22 21 21 20 19 18 17 16 14 12 11 9 8 7
10 11 11 12 12 12 12 12 13 13 13 13 15 15 15 16 16 16 17 18 19 20 20 21 21 22 23 23 22 22 22 22 21 21 21 20 19 17 16 14 13 11 10 9
8 10 11 11 11 11 11 11 12 12 12 13 13 14 15 15 15 16 16 17 18 19 19 20 20 22 22 23 23 23 23 23 22 22 21 21 20 19 18 17 15 14 13 12
7 8 9 10 10 10 11 10 11 11 12 12 12 13 14 14 15 15 16 17 18 18 19 19 20 20 21 22 23 23 23 23 23 23 23 22 21 21 20 18 17 15 15 14
7 7 8 9 9 10 10 11 11 11 11 12 12 13 13 13 13 14 15 16 17 17 18 18 19 19 20 21 22 23 23 23 23 23 23 23 22 22 22 21 19 18 17 16
9 8 8 8 8 9 9 10 10 11 11 11 11 12 12 13 13 13 13 14 15 16 17 17 18 18 19 20 21 22 22 22 23 23 23 24 23 23 22 22 21 19 19 18
11 10 10 10 9 9 9 9 10 10 10 11 11 11 11 12 12 12 13 13 14 14 15 16 17 17 18 19 20 21 21 22 22 22 23 23 23 23 22 22 22 21 20 19
14 13 12 12 11 11 11 10 10 10 10 10 10 10 10 11 11 12 12 12 12 13 13 14 15 16 16 17 18 19 20 20 21 22 22 22 23 23 22 22 22 21 21 20
16 16 15 15 14 13 12 12 11 11 10 10 10 10 10 10 11 11 11 11 11 12 12 13 13 14 14 15 16 17 18 19 19 20 21 21 22 22 22 22 21 21 21 20
19 18 18 17 16 16 15 14 14 13 12 11 11 10 10 10 10 10 10 10 11 11 11 12 12 12 13 14 14 15 16 16 17 18 19 20 20 20 20 21 20 20 21 20
22 22 21 19 19 18 18 17 16 15 14 14 13 12 11 11 11 10 10 10 10 11 11 11 11 11 12 12 13 13 13 14 15 16 17 17 18 18 18 19 19 19 19 19
26 25 24 23 22 21 21 20 19 18 17 16 15 15 14 13 13 12 12 11 11 11 11 11 10 11 11 11 11 11 12 12 13 13 14 15 15 16 16 17 17 17 17 17
30 29 27 27 26 25 24 23 22 21 20 19 18 18 17 16 15 14 13 13 12 12 11 11 11 10 10 10 10 10 10 10 11 11 11 12 12 13 14 14 14 14 14 15
34 33 32 31 30 29 28 27 26 25 24 22 21 21 20 19 18 17 16 15 15 14 13 13 12 11 11 10 10 10 10 10 9 9 10 10 10 10 11 11 12 12 12 12
39 37 36 35 34 33 32 31 30 29 27 26 25 24 23 22 21 20 20 19 18 17 16 15 14 13 12 12 11 11 10 10 9 9 8 8 8 8 9 9 9 9 9 9
44 42 41 40 39 38 37 35 34 33 32 31 29 28 26 25 24 24 23 22 21 20 19 18 17 16 15 14 13 12 12 11 11 10 9 8 8 8 7 7 7 7 7 7
47 47 46 45 44 43 42 40 39 38 36 35 33 32 30 29 28 27 26 25 23 23 23 22 20 19 18 18 16 15 14 13 13 12 11 11 10 9 8 8 7 7 7 6
51 51 51 50 49 48 46 45 44 43 41 40 38 36 35 33 32 31 30 28 26 26 26 25 24 23 22 21 20 19 18 17 16 15 14 13 12 12 11 10 10 9 9 8
54 54 54 54 53 53 51 50 49 47 46 45 43 41 40 38 37 36 34 31 30 30 30 28 27 26 26 24 23 22 21 20 19 18 18 17 16 15 14 14 13 13 12 11
56 56 57 57 57 56 56 55 54 53 51 50 48 47 45 43 42 40 38 36 35 34 33 32 30 30 29 28 27 26 25 24 23 22 21 20 20 19 18 17 17 16 16 15
59 59 59 60 60 60 59 59 59 58 56 55 53 52 50 49 47 46 43 41 40 39 37 36 35 34 33 32 30 29 29 28 27 26 25 24 23 23 22 21 21 20 20 19
61 60 60 61 62 63 63 63 62 62 61 60 58 57 55 54 53 51 49 47 46 44 42 40 39 38 38 36 35 33 32 31 30 29 29 28 27 26 25 25 24 24 23 23
60 60 61 61 61 62 64 65 66 65 65 64 63 61 60 59 58 56 55 53 51 49 47 46 45 44 42 41 39 38 37 36 35 34 33 32 31 30 29 29 28 27 27 26
62 61 60 60 61 61 63 64 66 68 68 67 66 65 64 63 62 61 60 58 56 54 53 52 50 49 48 46 45 43 42 41 39 38 37 36 35 34 34 33 32 31 31 30
63 63 63 62 61 61 61 62 64 66 68 69 69 69 68 67 66 65 64 63 62 60 59 57 56 54 53 52 50 48 47 46 44 43 42 41 40 39 38 37 36 36 35 35
Wind_Direction
43 39 36 35 35 35 33 33 33 33 34 34 31 30 29 30 31 32 32 31 30 30 30 29 29 29 28 28 28 28 27 27 26 25 24 23 22 19 16 13 4 347 326 303
44 41 38 36 36 35 34 33 32 32 32 30 29 30 31 32 32 32 31 31 30 29 28 28 28 28 28 28 28 27 27 26 25 24 25 23 22 20 17 12 4 354 341 326
40 39 37 36 34 33 32 31 30 28 29 29 29 28 29 29 28 28 28 27 27 26 27 27 28 27 27 28 27 26 26 26 25 25 25 23 22 20 19 18 15 7 359 347
32 34 35 31 29 27 26 26 27 27 27 27 26 26 27 27 27 27 25 23 23 23 24 25 26 26 27 27 27 26 27 27 26 27 27 27 25 24 24 22 19 16 12 3
20 24 31 29 24 23 21 21 20 22 22 22 22 24 24 24 25 24 23 22 22 21 22 23 24 25 25 26 27 28 28 29 30 29 29 28 28 26 25 25 25 24 21 18
360 7 16 19 19 19 19 20 16 15 15 16 16 17 18 19 21 22 22 22 22 22 22 23 24 25 25 25 26 27 28 28 29 29 28 29 28 28 28 29 31 30 27 25
331 343 355 1 4 7 10 10 10 11 10 8 9 10 10 12 15 18 18 19 19 20 21 22 23 24 25 25 26 27 28 29 29 29 29 30 30 31 32 33 34 34 34 34
307 317 326 333 341 347 354 358 360 1 1 1 2 3 5 6 7 9 11 13 15 17 18 20 21 23 24 24 26 27 28 29 30 30 31 31 32 33 34 35 36 38 39 41
295 300 305 310 316 323 330 337 344 347 350 352 354 355 358 1 2 3 5 7 10 13 15 18 20 22 23 24 25 26 28 29 30 30 31 32 33 34 36 38 39 40 40 42
286 288 290 294 298 303 309 316 323 331 337 340 343 345 347 350 354 358 360 2 4 7 10 13 15 18 20 21 23 24 26 28 29 30 31 32 34 35 37 39 40 42 44 46
281 282 283 285 287 289 294 300 306 312 319 325 330 334 337 338 342 346 350 353 356 359 2 4 7 10 13 16 18 20 22 25 27 28 30 32 34 36 37 39 41 43 45 48
275 277 278 279 280 282 284 287 292 297 302 308 313 318 324 329 333 336 339 343 346 349 352 355 358 1 5 9 12 15 18 22 24 27 29 31 33 35 37 39 41 43 47 49
270 271 273 275 275 277 278 280 282 285 289 293 297 303 307 312 318 322 326 330 333 336 340 344 349 353 357 1 6 9 12 15 19 22 26 28 31 33 36 38 41 43 46 49
268 269 271 272 272 273 274 275 276 278 280 283 285 289 292 297 301 305 308 313 318 322 326 330 335 340 346 351 356 2 6 9 12 15 19 23 27 30 33 36 38 42 44 47
267 268 269 269 269 269 270 271 272 273 274 276 278 280 282 285 289 292 295 299 302 306 311 315 320 325 330 336 342 347 353 358 3 7 11 15 19 24 28 31 35 38 41 44
266 267 267 267 268 268 269 269 269 270 270 271 273 274 275 278 280 282 284 287 290 293 296 300 304 308 314 320 325 330 334 339 345 353 359 4 9 14 19 23 27 32 36 39
264 265 265 266 267 267 267 268 268 268 268 268 268 269 271 273 274 275 276 278 280 282 285 287 290 293 298 303 308 313 317 320 324 329 336 344 352 358 4 10 16 21 25 30
263 263 263 264 264 265 265 266 266 267 266 266 266 267 267 268 269 270 271 272 274 275 277 278 280 282 285 288 292 297 301 304 306 309 313 317 324 331 338 346 354 2 9 15
262 262 262 262 262 263 263 263 264 264 265 265 265 264 264 265 266 266 267 267 268 270 271 272 274 275 277 279 281 284 286 289 292 293 295 297 299 303 308 314 320 326 333 341
260 261 261 261 261 261 261 261 261 262 262 263 263 263 263 262 263 263 264 264 265 265 266 268 270 270 271 273 274 276 277 279 281 283 284 285 286 288 290 293 296 299 302 306
260 259 259 259 259 259 259 259 259 259 259 260 260 261 261 260 261 261 262 261 261 261 263 264 265 266 267 268 269 271 272 273 274 275 277 278 278 279 280 282 284 285 287 289
260 258 257 257 258 258 257 257 257 257 257 257 258 258 259 259 259 259 259 259 258 259 260 261 261 262 263 265 265 266 268 269 270 270 271 272 273 274 275 276 277 278 279 280
263 260 257 256 255 255 256 256 255 255 255 255 255 256 256 257 257 257 257 257 257 257 257 258 259 260 261 262 263 264 265 266 267 267 268 269 270 270 271 272 273 274 275 276
265 263 260 258 256 254 253 253 254 254 253 253 253 253 254 254 255 255 255 255 255 256 256 256 256 257 259 260 261 261 262 263 264 265 266 266 267 268 269 269 270 271 272 273
268 266 264 261 258 256 254 252 251 252 252 251 251 251 252 252 252 253 253 253 254 254 254 254 255 256 257 258 259 260 261 261 262 263 264 264 265 266 267 268 269 270 270 271
269 268 266 264 262 258 256 254 252 250 250 250 250 250 250 250 250 250 251 252 252 252 252 253 254 254 255 257 257 258 259 260 260 261 262 263 264 265 266 267 268 269 270 271
270 269 268 267 264 262 259 256 254 252 250 249 249 248 248 248 249 249 249 250 250 251 251 252 253 253 254 255 256 257 258 259 260 260 261 262 262 263 264 265 267 268 269 270
Height
5883 5881 5879 5877 5874 5872 5869 5867 5864 5862 5859 5857 5854 5851 5848 5844 5841 5838 5834 5830 5826 5822 5818 5814 5810 5806 5802 5798 5794 5790 5786 5782 5779 5775 5772 5769 5766 5764 5762 5760 5759 5758 5758 5758
5885 5883 5881 5879 5876 5874 5871 5869 5867 5864 5862 5859 5856 5853 5850 5847 5844 5841 5837 5834 5830 5826 5822 5818 5814 5809 5805 5801 5797 5793 5789 5785 5782 5778 5775 5771 5768 5765 5763 5761 5760 5758 5757 5757
5886 5884 5883 5881 5879 5876 5874 5872 5869 5867 5865 5861 5859 5856 5853 5850 5847 5844 5840 5837 5833 5829 5825 5821 5817 5813 5809 5805 5801 5796 5792 5788 5784 5781 5777 5774 5770 5767 5765 5762 5760 5758 5757 5756
5887 5886 5884 5884 5880 5878 5876 5874 5871 5869 5867 5864 5861 5859 5856 5853 5850 5846 5843 5840 5836 5832 5829 5825 5821 5816 5812 5808 5804 5800 5795 5791 5787 5783 5780 5776 5773 5769 5766 5764 5761 5759 5757 5756
5888 5887 5885 5884 5881 5879 5877 5876 5873 5871 5868 5866 5863 5861 5858 5855 5852 5849 5846 5842 5839 5835 5831 5828 5824 5820 5816 5811 5807 5803 5799 5795 5791 5787 5783 5779 5776 5772 5768 5765 5762 5760 5758 5756
5889 5887 5886 5886 5883 5880 5879 5877 5875 5872 5870 5867 5865 5863 5861 5857 5854 5851 5848 5845 5841 5838 5834 5830 5827 5823 5819 5815 5811 5807 5802 5798 5794 5790 5786 5782 5778 5775 5771 5767 5764 5762 5760 5757
5888 5887 5886 5885 5883 5881 5881 5879 5876 5873 5871 5869 5866 5865 5862 5859 5856 5853 5850 5847 5844 5840 5837 5833 5830 5826 5822 5818 5814 5810 5806 5802 5798 5794 5790 5786 5782 5778 5774 5770 5767 5765 5762 5759
5887 5887 5888 5884 5883 5882 5881 5878 5876 5873 5871 5869 5867 5865 5862 5860 5857 5854 5852 5849 5846 5843 5839 5836 5832 5829 5825 5822 5818 5814 5810 5806 5802 5798 5794 5789 5785 5781 5778 5774 5771 5768 5765 5762
5886 5887 5885 5883 5882 5881 5879 5877 5875 5874 5872 5870 5867 5865 5863 5860 5858 5855 5853 5850 5847 5844 5841 5838 5835 5831 5828 5825 5821 5817 5813 5810 5806 5802 5798 5794 5790 5786 5782 5778 5775 5772 5769 5766
5883 5882 5882 5881 5880 5879 5878 5876 5874 5873 5871 5869 5867 5865 5863 5861 5858 5856 5854 5851 5848 5846 5843 5840 5837 5834 5831 5827 5824 5820 5817 5813 5809 5805 5802 5798 5794 5790 5786 5783 5780 5777 5774 5771
5879 5879 5878 5878 5877 5876 5875 5874 5873 5871 5870 5868 5866 5864 5862 5860 5858 5856 5854 5852 5849 5847 5844 5841 5838 5835 5832 5829 5826 5823 5820 5816 5813 5809 5805 5802 5798 5794 5791 5788 5784 5782 5778 5776
5875 5874 5874 5874 5873 5872 5872 5871 5870 5869 5868 5866 5865 5863 5861 5859 5857 5855 5853 5851 5849 5847 5844 5842 5839 5837 5834 5831 5828 5825 5822 5819 5816 5812 5809 5806 5802 5799 5796 5792 5789 5786 5783 5781
5869 5869 5869 5869 5868 5868 5867 5867 5866 5865 5864 5863 5862 5861 5859 5858 5856 5854 5852 5850 5848 5846 5844 5842 5839 5837 5834 5832 5829 5826 5824 5821 5818 5815 5812 5809 5806 5803 5800 5797 5794 5791 5788 5786
5862 5863 5863 5863 5863 5862 5862 5861 5861 5860 5860 5859 5858 5857 5856 5855 5853 5852 5850 5849 5847 5845 5843 5841 5839 5837 5835 5832 5830 5827 5825 5822 5820 5817 5815 5812 5809 5806 5803 5801 5798 5795 5793 5790
5855 5855 5856 5856 5856 5856 5855 5855 5855 5855 5854 5854 5853 5852 5852 5851 5850 5849 5847 5846 5844 5843 5841 5839 5838 5836 5834 5832 5830 5827 5825 5823 5821 5818 5816 5814 5811 5809 5806 5804 5801 5799 5797 5795
5846 5847 5848 5848 5848 5848 5848 5848 5848 5848 5848 5847 5847 5847 5846 5846 5845 5844 5843 5842 5841 5840 5838 5837 5835 5834 5832 5830 5828 5827 5825 5823 5821 5819 5817 5815 5813 5810 5808 5806 5804 5802 5800 5798
5836 5838 5838 5839 5839 5840 5840 5840 5840 5840 5840 5840 5840 5840 5839 5839 5839 5838 5838 5837 5836 5835 5834 5833 5832 5831 5829 5828 5826 5825 5823 5821 5820 5818 5816 5815 5813 5811 5809 5807 5805 5804 5802 5800
5824 5826 5827 5828 5829 5830 5830 5831 5831 5831 5831 5831 5831 5832 5832 5832 5832 5831 5831 5831 5830 5830 5829 5828 5827 5826 5825 5824 5823 5822 5821 5819 5818 5816 5815 5813 5812 5811 5809 5808 5806 5804 5803 5801
5811 5812 5814 5815 5816 5817 5819 5820 5820 5821 5821 5822 5822 5823 5823 5823 5823 5823 5823 5823 5823 5823 5822 5822 5821 5821 5820 5819 5819 5818 5817 5816 5815 5814 5812 5811 5810 5809 5808 5806 5805 5804 5803 5801
5796 5797 5799 5800 5802 5803 5805 5806 5807 5808 5809 5810 5811 5812 5813 5813 5813 5813 5814 5815 5815 5815 5814 5814 5814 5814 5814 5813 5813 5812 5812 5811 5810 5810 5809 5808 5807 5806 5805 5804 5803 5802 5801 5800
5780 5781 5782 5784 5785 5787 5789 5791 5792 5794 5796 5797 5798 5800 5801 5801 5802 5803 5804 5805 5806 5805 5805 5806 5806 5806 5806 5806 5806 5805 5805 5805 5805 5804 5804 5803 5802 5802 5801 5800 5800 5799 5798 5797
5760 5762 5764 5766 5767 5769 5771 5773 5775 5778 5780 5782 5784 5785 5787 5788 5790 5791 5792 5794 5794 5794 5795 5796 5796 5796 5796 5797 5797 5798 5798 5798 5797 5797 5797 5797 5796 5796 5796 5795 5795 5794 5794 5793
5738 5740 5743 5745 5747 5750 5752 5754 5757 5759 5762 5765 5767 5770 5772 5774 5775 5777 5779 5780 5781 5782 5784 5785 5785 5786 5786 5787 5788 5788 5789 5789 5789 5789 5789 5789 5789 5789 5789 5789 5788 5788 5788 5788
5715 5717 5720 5723 5726 5728 5731 5734 5736 5739 5742 5746 5749 5752 5754 5757 5759 5761 5764 5766 5767 5769 5771 5772 5773 5774 5774 5776 5777 5778 5779 5779 5780 5780 5781 5781 5781 5781 5781 5781 5781 5781 5781 5780
5693 5695 5697 5700 5703 5706 5709 5711 5714 5717 5721 5725 5728 5732 5735 5738 5741 5744 5746 5749 5752 5754 5756 5757 5759 5760 5762 5763 5765 5766 5767 5768 5769 5770 5770 5771 5771 5772 5772 5772 5772 5772 5772 5772
5673 5674 5675 5677 5680 5683 5686 5689 5691 5694 5698 5703 5707 5710 5714 5717 5721 5725 5728 5731 5735 5737 5739 5741 5744 5745 5747 5749 5751 5753 5754 5756 5757 5758 5759 5760 5760 5761 5761 5762 5762 5762 5763 5763
5652 5652 5654 5655 5658 5660 5662 5665 5668 5672 5676 5679 5683 5686 5691 5695 5700 5704 5707 5711 5715 5718 5721 5724 5727 5729 5731 5733 5736 5738 5739 5741 5743 5745 5746 5747 5748 5749 5749 5750 5751 5751 5751 5752